This demonstration page uses our WeatherBlox Daily Observations layout. Learn more.

Left ArrowRight Arrow

39.92423, -83.80882

Hourly Observations for August 5, 2016

Temp ( °F °C ) Dew Point ( °F °C ) Humidity (%) Winds ( mph kmh ) Pressure ( in mb ) Visibility ( mi km ) Precip ( " mm )
12:56 am 00:56 Clear 73 22.8 70 21.1 90 90 S 3 6 29.95 1014 10 16.0934 N/A
1:56 am 01:56 Clear 73 22.8 70 21.1 90 90 S 3 6 N/A 10 16.0934 N/A
2:56 am 02:56 Clear 72 22.2 70 21.1 94 94 SSW 5 7 29.93 1013 10 16.0934 N/A
3:56 am 03:56 Clear 72 22.2 70 21.1 94 94 S 3 6 29.92 1013 9 14.48406 N/A
4:56 am 04:56 Clear 71 21.7 69 20.6 94 94 SSW 3 6 N/A 7 11.26538 N/A
5:56 am 05:56 Clear with Mist and Fog 69 20.6 68 20 96 96 N N/A 29.92 1013 5 8.0467 N/A
6:38 am 06:38 Clear with Mist and Fog 70 21 68 20 94 94 S 3 6 N/A 2.5 4.02335 N/A
6:48 am 06:48 Sunny with Mist and Fog 70 21 68 20 94 94 S 5 7 29.94 1014 4 6.43736 N/A
6:56 am 06:56 Sunny with Mist and Fog 70 21.1 69 20.6 97 97 N N/A 29.93 1014 4 6.43736 N/A
7:56 am 07:56 Sunny with Mist and Fog 71 21.7 69 20.6 94 94 N N/A 29.93 1014 5 8.0467 N/A
8:56 am 08:56 Sunny 74 23.3 72 22.2 94 94 S 5 7 29.93 1014 7 11.26538 N/A
9:56 am 09:56 Sunny 78 25.6 73 22.8 85 85 W 9 15 29.94 1014 8 12.87472 N/A
10:33 am 10:33 Mostly Cloudy 81 27 73 23 79 79 WSW 6 9 29.91 1013 9 14.48406 N/A
10:42 am 10:42 Mostly Cloudy 81 27 73 23 79 79 WSW 3 6 29.91 1013 10 16.0934 N/A
10:51 am 10:51 Mostly Cloudy 81 27 73 23 79 79 SW 5 7 29.91 1013 10 16.0934 N/A
10:56 am 10:56 Mostly Cloudy 81 27.2 74 23.3 79 79 WSW 6 9 29.94 1014 9 14.48406 N/A
11:37 am 11:37 Partly Cloudy 82 28 73 23 74 74 W 7 11 29.91 1013 10 16.0934 N/A
11:44 am 11:44 Mostly Cloudy 84 29 73 23 70 70 SW 9 15 29.91 1013 10 16.0934 N/A
11:56 am 11:56 Mostly Cloudy 84 28.9 72 22.2 67 67 undefined N/A 29.93 1014 10 16.0934 N/A
12:39 pm 12:39 Mostly Cloudy 84 29 72 22 66 66 SW 9 15 29.91 1013 10 16.0934 N/A
12:56 pm 12:56 Partly Cloudy 87 30.6 72 22.2 61 61 undefined N/A N/A 10 16.0934 N/A
1:56 pm 13:56 Mostly Cloudy 88 31.1 70 21.1 55 55 WSW 8 13 29.91 1013 10 16.0934 N/A
2:56 pm 14:56 Sunny 89 31.7 71 21.7 55 55 WSW 9 15 29.89 1012 10 16.0934 N/A
3:56 pm 15:56 Mostly Sunny 90 32.2 70 21.1 52 52 W 13 20 29.87 1012 10 16.0934 N/A
4:56 pm 16:56 Mostly Sunny 90 32.2 72 22.2 56 56 W 8 13 29.86 1011 10 16.0934 N/A
5:56 pm 17:56 Sunny 89 31.7 71 21.7 55 55 undefined N/A 29.85 1011 10 16.0934 N/A
6:56 pm 18:56 Sunny 88 31.1 70 21.1 55 55 W 9 15 29.85 1011 10 16.0934 N/A
7:56 pm 19:56 Sunny 85 29.4 69 20.6 59 59 W 8 13 29.85 1011 10 16.0934 N/A
8:56 pm 20:56 Mostly Clear 79 26.1 71 21.7 77 77 WSW 6 9 29.86 1011 10 16.0934 N/A
9:56 pm 21:56 Clear 75 23.9 71 21.7 88 88 WSW 6 9 29.87 1012 10 16.0934 N/A
10:56 pm 22:56 Mostly Cloudy 78 25.6 72 22.2 82 82 W 7 11 29.88 1012 10 16.0934 N/A
11:56 pm 23:56 Mostly Clear 78 25.6 73 22.8 85 85 WNW 8 13 N/A 10 16.0934 N/A

Powered by AerisWeather